Location: Mahannah Oil Field
(37.4664°N, 96.6003°W)
Time: 07:37:45
(UTC+00:00)

Vanguard 3 - Pass Details

Date: 23 January 2021
Orbit: 508 x 3261 km, 33.3° (Epoch: 24 February)

Event Time Altitude Azimuth Distance (km) Brightness Sun altitude
Exits shadow 09:34:06 29° 109° (ESE) 2,287 9.6 -47.8°
Drops below altitude 10° 09:39:59 10° 87° (E) 4,121 11.3 -46.6°
Sets 09:44:37 0° 81° (E) 5,609 12.2 -45.7°
